Location: Gisborne
(38.6530°S, 178.0040°E)
Time: 02:53:33
(UTC+13:00)

Cosmos 1151 Rocket - Pass Details

Date: 24 January 2019
Orbit: 591 x 617 km, 82.5° (Epoch: 15 February)

Event Time Altitude Azimuth Distance (km) Brightness Sun altitude
Rises 21:48:34 0° 347° (NNW) 2,823 6.2 -13.9°
Reaches altitude 10° 21:50:46 10° 344° (NNW) 1,932 5.4 -14.2°
Maximum altitude 21:55:00 64° 261° (W) 671 3.4 -14.8°
Drops below altitude 10° 21:59:21 10° 179° (S) 1,974 6.2 -15.5°
Sets 22:01:37 0° 176° (S) 2,889 7.0 -15.8°
